Location: 3 Angels Observatory
(30.5437°N, 88.5068°W)
Time: 12:39:38
(UTC-05:00)

Daily predictions for brighter satellites

Satellite Brightness Start Highest point End
(mag) Time Altitude Azimuth Time Altitude Azimuth Time Altitude Azimuth
Cosmos 2221 2.6 20:22:51 10° N 20:27:05 61° E 20:31:19 10° SSE
Meteor 1-16 Rocket 4.4 20:21:43 10° N 20:27:38 70° E 20:33:29 10° SSE
BREEZE M DEB (TANK) 2.9 20:27:25 10° NNW 20:29:04 23° NNE 20:31:13 10° E
Cosmos 1766 Rocket 3.5 20:29:29 10° S 20:33:55 74° E 20:38:18 10° N
Delta 2 Rocket 2.9 20:31:52 10° WSW 20:35:33 66° SSE 20:38:56 10° ENE
ATLAS CENTAUR R/B 2.6 20:33:19 10° N 20:37:12 29° NE 20:40:43 11° ESE
Cosmos 1733 4.1 20:34:05 10° NNW 20:37:46 51° W 20:41:27 10° S
Cosmos 2322 Rocket 3.2 20:36:57 10° N 20:41:50 30° ENE 20:46:21 12° ESE
Cosmos 405 Rocket 4.0 20:44:27 10° SSW 20:47:57 41° W 20:51:29 10° N
SL-16 R/B 3.1 20:46:03 10° N 20:51:10 34° ENE 20:55:22 14° SE
Cosmos 1939 Rocket 4.0 20:48:27 13° SE 20:51:13 26° ENE 20:54:29 10° NNE
AVUM R/B 4.4 20:52:34 14° E 20:52:34 14° E 20:53:21 10° ENE
Cosmos 1980 Rocket 2.4 20:46:34 10° NNW 20:52:14 77° WSW 20:57:55 10° SSE
Cosmos 2360 Rocket 4.2 20:50:03 10° NNE 20:52:22 12° ENE 20:54:39 10° E
In-Cosmos 22 4.3 20:47:39 10° S 20:53:17 60° E 20:58:57 10° NNE
H-2A R/B 1.4 20:52:56 10° SW 20:56:42 27° S 20:57:30 21° SE
Cosmos 1697 Rocket 4.1 20:53:51 10° NW 20:58:58 36° WSW 21:04:03 10° S
USA 229 DEB 3.7 20:53:10 10° SSW 21:00:02 74° ESE 21:06:59 10° NNE
USA 229 3.7 20:53:17 10° SSW 21:00:08 74° ESE 21:07:05 10° NNE
FENGYUN 3A 4.0 20:54:55 10° S 21:00:17 66° W 21:05:40 10° NNW
Cosmos 1553 Rocket 4.2 20:55:26 10° N 21:01:41 54° E 21:07:18 12° SSE
Cosmos 1417 Rocket 4.5 20:55:33 10° N 21:01:47 74° E 21:08:03 10° S
Nimbus 7 Rocket 4.5 20:56:44 10° NNE 21:02:28 54° ESE 21:08:10 10° S
Cosmos 540 Rocket 3.5 20:59:19 10° NNW 21:04:30 82° WSW 21:09:30 11° SSE
YAOGAN 11 4.2 21:05:23 10° S 21:09:39 76° W 21:13:59 10° NNW
Cosmos 332 Rocket 3.8 21:06:30 10° NNW 21:11:22 88° WSW 21:15:22 15° SSE
Cosmos 2151 4.1 21:10:12 21° ESE 21:11:26 24° E 21:14:49 10° NE
Cosmos 1674 3.4 21:09:53 22° SE 21:11:37 33° E 21:15:06 10° NNE
Cosmos 1833 4.2 21:09:17 10° S 21:14:53 59° ESE 21:20:29 10° NNE
Cosmos 968 Rocket 4.1 21:11:22 10° SSW 21:16:25 58° WNW 21:21:34 10° N
Cosmos 1437 Rocket 3.5 21:16:03 10° NNE 21:19:32 33° E 21:20:37 28° ESE
NOSS 3-1 (A) 4.5 21:20:05 20° ESE 21:20:16 21° ESE 21:24:35 10° ENE
GPS 2-04 Rocket1 2.9 21:17:15 10° WNW 21:21:38 79° NNE 21:23:58 26° ESE
OAO 2 Rocket 4.0 21:18:03 10° SW 21:22:50 35° SSE 21:25:24 22° ESE
Cosmos 1151 Rocket 3.9 21:20:34 10° NNE 21:24:25 31° E 21:25:32 27° ESE
Meteor 1-21 Rocket 4.3 21:19:44 10° S 21:25:17 80° W 21:30:50 10° N
Envisat 2.9 21:30:37 25° SSE 21:33:39 76° ENE 21:38:43 10° N
H-2A R/B 2.2 21:31:03 22° S 21:33:57 78° WSW 21:38:29 10° NNW
Cosmos 1328 4.3 21:34:24 36° ESE 21:34:47 38° E 21:38:27 10° NNE
Cosmos 2292 4.3 21:31:51 10° N 21:34:51 76° W 21:35:59 37° S
Delta 128 3.9 21:31:54 10° W 21:36:18 47° SSW 21:37:29 37° SSE
Meteor 2-20 4.4 21:30:16 10° S 21:36:25 87° W 21:42:35 10° N
Cosmos 2058 3.7 21:42:56 33° E 21:42:56 33° E 21:46:25 10° NNE
ERS-1 Rocket 3.8 21:39:02 13° S 21:43:15 46° W 21:48:05 10° NNW
Cosmos 1328 Rocket 4.2 21:40:20 10° NNW 21:44:40 53° W 21:47:30 20° SSW
YAOGAN 6 3.2 21:46:03 40° ENE 21:46:04 40° ENE 21:49:30 10° N
S3M 4.4 21:41:03 10° NNW 21:47:03 59° W 21:52:17 14° SSW
SPOT 5 2.6 21:45:54 40° SSE 21:47:31 81° ENE 21:52:10 10° N
Cosmos 371 Rocket 3.8 21:43:10 10° NNW 21:47:51 54° WSW 21:50:24 25° S
Cosmos 1437 2.7 21:52:16 80° NE 21:52:16 80° NE 21:55:25 10° N
Cosmos 405 2.9 21:52:09 10° N 21:55:46 76° E 21:55:46 76° E
MetOp-A 4.0 21:54:51 40° SSE 21:56:52 80° ENE 22:02:13 10° N
ARGOS 3.7 21:55:49 37° ESE 21:57:02 43° ENE 22:02:06 10° N
H-2A R/B 3.5 22:00:41 22° ENE 22:01:11 23° ENE 22:05:16 10° NNE
SL-14 R/B 4.5 22:05:20 30° NE 22:05:20 30° NE 22:07:48 10° NNE
Cosmos 2219 3.1 22:01:49 20° SSW 22:05:52 87° ESE 22:11:38 10° NNE
NOSS 3-1 (C) 3.2 22:03:44 17° SSW 22:08:10 76° ESE 22:14:21 10° NNE
SL-08 RB Rocket 4.2 22:08:39 42° ENE 22:08:39 42° ENE 22:12:47 10° N
PSLV R/B 4.5 22:10:10 37° W 22:10:10 37° W 22:12:45 10° NNW
SPOT 1/Viking Rocket 3.4 22:12:05 59° SE 22:13:01 77° ENE 22:18:10 10° N
ATLAS CENTAUR R/B 3.4 22:13:02 10° WNW 22:16:00 18° WSW 22:17:04 17° SW
Delta 2 Rocket 4.1 22:14:49 10° W 22:17:57 38° NNW 22:17:57 38° NNW
Cosmos 2322 3.6 22:14:16 10° NNW 22:19:59 75° ENE 22:20:54 62° SE
Cosmos 2237 Rocket 4.5 22:21:13 10° NE 22:22:20 11° NE 22:23:15 10° ENE
Cosmos 1726 3.8 22:20:27 10° N 22:22:28 26° NNE 22:22:28 26° NNE
Cosmos 1680 Rocket 3.3 22:19:09 10° NNW 22:24:24 83° ENE 22:24:52 74° SE
Cosmos 2322 Rocket 3.7 22:21:01 10° NW 22:25:42 28° WSW 22:28:11 20° SW
Cosmos 923 Rocket 4.1 22:22:30 10° NNW 22:27:40 67° WSW 22:28:22 59° SSW
Cosmos 2150 Rocket 3.9 22:31:21 77° SSE 22:31:37 81° ESE 22:37:06 10° NNE
NOAA 11 4.0 22:31:18 72° SSE 22:31:53 89° SW 22:37:21 10° NNW
Cosmos 304 Rocket 3.8 22:28:07 10° NNW 22:32:54 74° W 22:32:54 74° W
Cosmos 1898 Rocket 3.3 22:33:17 80° ENE 22:33:17 80° ENE 22:38:21 10° NNE
Landsat 7 4.1 22:35:02 56° NE 22:35:02 56° NE 22:39:11 10° N
SL-16 R/B 3.9 22:30:30 10° NW 22:35:00 25° WSW 22:37:16 19° SW
Meteor 1-11 4.4 22:33:41 49° SSW 22:35:15 73° W 22:41:01 10° N
Cosmos 2360 Rocket 2.1 22:31:14 10° NNW 22:36:52 74° WSW 22:37:27 67° SSW
Cosmos 2315 Rocket 4.2 22:34:37 10° NNW 22:40:44 64° W 22:42:17 48° SSW
Cosmos 1633 Rocket 3.6 22:42:16 57° NNW 22:42:16 57° NNW 22:45:49 10° N
Cosmos 858 Rocket 4.4 22:42:00 80° NNE 22:42:00 80° NNE 22:46:56 10° NNE
Sich 1 3.5 22:42:31 59° NNW 22:42:31 59° NNW 22:46:16 10° N
DMSP B5D2-2 4.2 22:37:57 10° NNE 22:42:27 61° NE 22:42:27 61° NE
Terra 2.5 22:51:23 48° NNE 22:51:23 48° NNE 22:55:03 10° N
Cosmos 2227 Rocket 3.0 22:57:46 39° NE 22:57:46 39° NE 23:01:28 10° NNE
USA 32 4.4 23:01:55 10° N 23:06:29 63° NW 23:06:29 63° NW
Cosmos 2333 Rocket 3.4 23:02:41 10° N 23:07:11 31° NE 23:07:11 31° NE
NOSS 3-1 (A) 4.3 23:07:20 24° WSW 23:10:34 45° NW 23:16:37 10° NNE
Nadezhda 1 Rocket 4.0 23:06:59 10° N 23:12:27 68° NE 23:12:27 68° NE
SL-16 R/B 4.5 23:11:09 10° NNE 23:13:34 13° ENE 23:13:41 13° ENE
Cosmos 1745 Rocket 4.2 23:17:11 60° W 23:17:34 61° W 23:23:42 10° N
COSMOS 2428 3.1 23:13:47 10° NNW 23:18:35 59° WNW 23:18:35 59° WNW
Cosmos 2297 Rocket 3.2 23:25:45 37° NE 23:25:45 37° NE 23:29:10 10° NNE
Cosmos 1709 Rocket 4.4 23:27:29 51° NE 23:27:29 51° NE 23:32:11 10° NNE
DELTA 2 R/B (1) 4.3 23:22:39 10° WNW 23:26:42 49° NW 23:26:42 49° NW
ATLAS 2AS CENTAUR R/B 2.8 23:32:40 89° S 23:32:43 89° SE 23:40:42 10° NNE
Cosmos 2219 Rocket 2.9 23:34:19 10° NNW 23:38:24 50° NNW 23:38:24 50° NNW
H-2A R/B 3.5 23:41:19 32° WNW 23:41:19 32° WNW 23:45:10 10° NNW
COSMOS 2455 4.5 23:37:34 10° N 23:42:07 23° NE 23:42:07 23° NE
